|
|
Asteroid 2012 LH11
(Preview)
Orbital elements:
2012 LH11 Earth MOID = 0.1294 AU
Epoch 2012 Mar. 14.0 TT = JDT 2456000.5 MPC
M 350.78831 (2000.0) P Q
n 0.59723733 Peri. 286.75875 -0.87579034 +0.07145223
a 1.3964908 Node 259.39075 +0.06634494 -0.96177759
e 0.3054026 Incl. 29.05679 -0.47811047 -0.26434530
P 1.65 H 22....
|
Blobrana
|
0
|
|
|
|
|
Asteroid 2012 MQ
(Preview)
Orbital elements:
2012 MQ Earth MOID = 0.0988 AU
Epoch 2012 Mar. 14.0 TT = JDT 2456000.5 MPC
M 319.33501 (2000.0) P Q
n 0.33370790 Peri. 212.70186 +0.47619210 +0.86934503
a 2.0585356 Node 86.04536 -0.77561965 +0.48609022
e 0.4683323 Incl. 7.61574 -0.41431298 +0.08919371
P 2.95 H 23.0 G 0....
|
Blobrana
|
0
|
|
|
|
|
Asteroid 2012 LE11
(Preview)
Orbital elements:
2012 LE11 Earth MOID = 0.1713 AU
Epoch 2012 Mar. 14.0 TT = JDT 2456000.5 MPC
M 331.79936 (2000.0) P Q
n 0.21922246 Peri. 129.08434 +0.70136939 +0.71261512
a 2.7240350 Node 185.53756 -0.69469237 +0.67830598
e 0.5846670 Incl. 9.63152 -0.15963547 +0.17911084
P 4.50 H 17.9...
|
Blobrana
|
0
|
|
|
|
|
Asteroid 2012 LK9
(Preview)
Orbital elements:
2012 LK9 Earth MOID = 0.0562 AU
Epoch 2012 Mar. 14.0 TT = JDT 2456000.5 MPC
M 283.06706 (2000.0) P Q
n 0.25710144 Peri. 322.75193 +0.87667125 -0.43212002
a 2.4494376 Node 64.13184 +0.47823884 +0.73498428
e 0.6644260 Incl. 13.59277 +0.05229849 +0.52256138
P 3.83 H 17.4 G...
|
Blobrana
|
0
|
|
|
|
|
Asteroid 2012 LL9
(Preview)
Orbital elements:
2012 LL9 Earth MOID = 0.2301 AU
Epoch 2012 Mar. 14.0 TT = JDT 2456000.5 MPC
M 327.30719 (2000.0) P Q
n 0.21174387 Peri. 205.75463 +0.84975493 +0.28416931
a 2.7878034 Node 129.93112 -0.32494584 +0.94558506
e 0.7345379 Incl. 35.38438 -0.41512259 -0.15848249
P 4.65 H 18.5...
|
Blobrana
|
0
|
|
|
|
|
Asteroid 2012 HR69
(Preview)
Orbital elements:
2012 HR69 Earth MOID = 0.2126 AU
Epoch 2012 Mar. 14.0 TT = JDT 2456000.5 MPC
M 317.10550 (2000.0) P Q
n 0.28616846 Peri. 167.50601 +0.43856686 +0.89429936
a 2.2806302 Node 128.43682 -0.83398978 +0.44181718
e 0.4619253 Incl. 6.51043 -0.33484348 +0.07089597
P 3.44 H 19.9...
|
Blobrana
|
0
|
|
|
|
|
Asteroid 2012 LW7
(Preview)
Orbital elements:
2012 LW7 Earth MOID = 0.0843 AU
Epoch 2012 Mar. 14.0 TT = JDT 2456000.5 MPC
M 335.81936 (2000.0) P Q
n 0.63662681 Peri. 123.12274 -0.81550176 +0.55894848
a 1.3382773 Node 91.28939 -0.56833203 -0.72440859
e 0.2229513 Incl. 8.63559 -0.10934160 -0.40349572
P 1.55 H 23.3 G 0...
|
Blobrana
|
0
|
|
|
|
|
Asteroid (329395) 2002 AC
(Preview)
The 740 - 1700 metre wide asteroid 2002 AC will make a close pass (62.2 lunar distances, 0.1598 AU), travelling at 26.71 km/second, to the Earth-Moon system on the 16th June, 2012 @ 07:24 UT ±00:01. See more The Lunar Distance (LD), the distance between Earth and the Moon, equals 384,401 km, (or 0.002...
|
Blobrana
|
0
|
|
|
|
|
Asteroid (137120) 1999 BJ8
(Preview)
The 670 - 1500 metre wide asteroid 1999 BJ8 will make a close pass (68.8 lunar distances, 0.1769 AU), travelling at 14.88 km/second, to the Earth-Moon system on the 16th June, 2012 @ 11:42 UT ±00:01. See more The Lunar Distance (LD), the distance between Earth and the Moon, equals 384,401 km, (or 0.00...
|
Blobrana
|
0
|
|
|
|
|
Asteroid 2012 FA14
(Preview)
Orbital elements:
2012 FA14 Earth MOID = 0.0057 AU
Epoch 2012 Mar. 14.0 TT = JDT 2456000.5 MPC
M 324.80267 (2000.0) P Q
n 0.50156005 Peri. 328.11303 -0.46938155 +0.88165273
a 1.5688717 Node 273.85208 -0.79953602 -0.44776510
e 0.3682478 Incl. 2.79640 -0.37473072 -0.14897949
P 1.97 H 23.1...
|
Blobrana
|
2
|
|
|
|
|
Asteroid 2002 MN
(Preview)
2002 MN is the provisional name given to an asteroid that on June 14, 2002 missed the Earth by only 120,000 km, about one third the distance to the Moon (0.3 LD). Read more
|
Blobrana
|
0
|
|
|
|
|
Asteroid 2012 LG4
(Preview)
Orbital elements:
2012 LG4 Earth MOID = 0.0091 AU
Epoch 2012 Mar. 14.0 TT = JDT 2456000.5 MPC
M 219.84768 (2000.0) P Q
n 0.81818391 Peri. 100.18487 +0.96931162 -0.04531770
a 1.1321451 Node 262.71559 -0.04549275 +0.93282035
e 0.3108697 Incl. 14.09842 +0.24158932 +0.35748077
P 1.20 H 23.5...
|
Blobrana
|
0
|
|
|
|
|
Asteroid 2012 LK2
(Preview)
Orbital elements:
2012 LK2 Earth MOID = 0.4144 AU
Epoch 2012 Mar. 14.0 TT = JDT 2456000.5 MPC
M 10.18757 (2000.0) P Q
n 0.27915053 Peri. 22.92506 -0.59225797 -0.57123843
a 2.3186956 Node 108.84238 +0.61439613 -0.77644619
e 0.8457655 Incl. 36.90105 +0.52129444 +0.26611645
P 3.53 H 17.1 G 0...
|
Blobrana
|
0
|
|
|
|
|
Asteroid 2012 LP1
(Preview)
Orbital elements:
Work in progress MPEC 2012 - L26 The 58 - 130 metre wide asteroid 2012 LP1 will make a close pass (33.3 lunar distances, 0.0855 AU), travelling at 11.68 km/second, to the Earth-Moon system on the 14th June, 2012 @ 21:38 UT ±01:33. [url=http://ssd.jpl.nasa.gov/sbdb.cgi?sstr=2...
|
Blobrana
|
1
|
|
|
|
|
Asteroid 2012 LJ2
(Preview)
Orbital elements:
2012 LJ2 Earth MOID = 0.1531 AU
Epoch 2012 Mar. 14.0 TT = JDT 2456000.5 MPC
M 348.67187 (2000.0) P Q
n 0.40562406 Peri. 94.84758 -0.82456151 +0.01279442
a 1.8073971 Node 86.73632 -0.25907167 -0.89731072
e 0.5390800 Incl. 34.50975 +0.50297136 -0.44121399
P 2.43 H 21.6 G 0...
|
Blobrana
|
0
|
|
|